Sarasota, FL

7:21 PM EST on December 15, 2019 (GMT -0500)
Sarasota-bradenton

Weather History for KSRQ - October, 2019

Change the Weather History Date:

Wednesday, October 30, 2019

  Actual Average Record
Temperature  
Mean Temperature 83 °F 73 °F  
Max Temperature 91 °F 82 °F 91 °F (2009)
Min Temperature 75 °F 64 °F 45 °F (1952)
Degree Days  
Heating Degree Days 0 0  
Month to date heating degree days 0 0  
Since 1 July heating degree days 0 0  
Cooling Degree Days 18 8  
Month to date cooling degree days 539 347  
Year to date cooling degree days 3996 3136  
Growing Degree Days 33 (Base 50)    
Moisture  
Dew Point 75 °F    
Average Humidity 79    
Maximum Humidity 94    
Minimum Humidity 55    
Precipitation  
Precipitation 0.00 in 0.08 in 3.37 in (1922)
Month to date precipitation 3.38 3.04  
Year to date precipitation 46.76 48.47  
Sea Level Pressure  
Sea Level Pressure 30.02 in    
Wind  
Wind Speed 6 mph ()    
Max Wind Speed 14 mph    
Max Gust Speed 21 mph    
Visibility 10.0 miles    
Events      
T = Trace of Precipitation, MM = Missing Value Source: Averaged Metar Reports

Daily Weather History Graph

Daily Weather History Graph

Search for Another Location

Airport or City:

Astronomy

Oct. 30, 2019 Rise Set
Actual Time 7:39 AM EDT 6:48 PM EDT
Civil Twilight 7:15 AM EDT 7:12 PM EDT
Nautical Twilight 6:47 AM EDT 7:39 PM EDT
Astronomical Twilight 6:20 AM EDT 8:06 PM EDT
Moon 10:10 AM EDT (10/30) 9:06 PM EDT (10/30)
Length of Visible Light 11h 57m
Length of Day
11h 09m
Waxing Crescent, 8% of the Moon is Illuminated
Oct 30
Waxing Crescent
Nov 4
First Quarter
Nov 12
Full
Nov 19
Last Quarter
Nov 26
New

Hourly Weather History & Observations

Time (EDT) Temp. Heat Index Dew Point Humidity Pressure Visibility Wind Dir Wind Speed Gust Speed Precip Events Conditions
12:53 AM 79.0 °F - 73.9 °F 84% 30.04 in 10.0 mi East 9.2 mph - N/A   Clear
1:53 AM 78.1 °F - 73.9 °F 87% 30.03 in 10.0 mi East 8.1 mph - N/A   Clear
2:53 AM 78.1 °F - 73.9 °F 87% 30.01 in 10.0 mi East 8.1 mph - N/A   Clear
3:53 AM 77.0 °F - 73.9 °F 90% 30.01 in 10.0 mi East 5.8 mph - N/A   Clear
4:53 AM 77.0 °F - 73.9 °F 90% 30.01 in 10.0 mi East 4.6 mph - N/A   Clear
5:53 AM 77.0 °F - 73.9 °F 90% 30.01 in 10.0 mi ESE 5.8 mph - N/A   Clear
6:53 AM 75.9 °F - 73.9 °F 94% 30.03 in 10.0 mi NE 3.5 mph - N/A   Clear
7:13 AM 75.9 °F - 73.0 °F 91% 30.03 in 10.0 mi ENE 4.6 mph - N/A   Partly Cloudy
7:53 AM 77.0 °F - 73.9 °F 90% 30.03 in 10.0 mi East 5.8 mph - N/A   Clear
8:53 AM 79.0 °F - 75.0 °F 88% 30.04 in 10.0 mi ESE 9.2 mph - N/A   Clear
8:55 AM 79.0 °F - 75.0 °F 88% 30.04 in 10.0 mi ESE 6.9 mph - N/A   Clear
9:53 AM 82.9 °F 90.2 °F 75.0 °F 77% 30.06 in 10.0 mi ESE 12.7 mph - N/A   Clear
10:53 AM 86.0 °F 93.8 °F 73.9 °F 67% 30.06 in 10.0 mi SE 13.8 mph - N/A   Partly Cloudy
11:53 AM 88.0 °F 95.6 °F 73.0 °F 61% 30.07 in 10.0 mi ESE 10.4 mph - N/A   Mostly Cloudy
12:53 PM 90.0 °F 96.9 °F 72.0 °F 55% 30.04 in 10.0 mi ESE 5.8 mph - N/A   Scattered Clouds
1:53 PM 87.1 °F 96.3 °F 75.0 °F 67% 30.01 in 10.0 mi SW 8.1 mph - N/A   Mostly Cloudy
2:53 PM 88.0 °F 97.5 °F 75.0 °F 65% 29.99 in 10.0 mi SW 9.2 mph - N/A   Partly Cloudy
3:53 PM 88.0 °F 98.5 °F 75.9 °F 67% 29.98 in 10.0 mi WSW 6.9 mph - N/A   Scattered Clouds
4:53 PM 86.0 °F 96.0 °F 75.9 °F 72% 29.97 in 10.0 mi WSW 9.2 mph - N/A   Overcast
5:53 PM 86.0 °F 96.0 °F 75.9 °F 72% 29.97 in 10.0 mi NW 8.1 mph - N/A   Scattered Clouds
6:53 PM 84.0 °F 91.9 °F 75.0 °F 74% 29.97 in 10.0 mi WNW 6.9 mph - N/A   Clear
7:53 PM 82.9 °F 90.8 °F 75.9 °F 79% 29.99 in 10.0 mi NW 3.5 mph - N/A   Mostly Cloudy
8:53 PM 82.9 °F 90.8 °F 75.9 °F 79% 29.99 in 10.0 mi NNW 4.6 mph - N/A   Mostly Cloudy
9:53 PM 82.0 °F 88.6 °F 75.0 °F 79% 30.01 in 10.0 mi Calm Calm - N/A   Scattered Clouds
10:53 PM 82.0 °F 89.4 °F 75.9 °F 82% 30.01 in 10.0 mi ENE 4.6 mph - N/A   Scattered Clouds
11:53 PM 82.0 °F 90.2 °F 77.0 °F 85% 30.01 in 10.0 mi Calm Calm - N/A   Scattered Clouds